IZ1UQG-1 Weather Reports


time (UTC)temp
C
wind
direction
speed
KPH
gust
KPH
rain 1hr
cm
rain 24hr
cm
rain mn
cm
humidity
%
barometer
mb
20260507214350 16 0 0.0 0.0 20.90 14.30 0.00 61 1014.5
20260507213850 16 0 0.0 0.0 21.23 12.52 0.00 61 1014.4
20260507213350 16 0 0.0 0.0 19.46 10.77 0.00 61 1014.5
20260507212850 16 0 0.0 0.0 19.84 8.38 0.00 61 1014.4
20260507212350 16 0 0.0 0.0 19.05 7.59 0.00 61 1014.4
20260507211850 16 0 0.0 0.0 18.06 4.85 0.00 60 1014.4
20260507211350 16 0 0.0 0.0 18.21 18.06 0.00 60 1014.4
20260507210850 16 0 0.0 0.0 18.75 18.06 0.00 60 1014.1
20260507210350 16 0 0.0 0.0 19.56 18.06 0.00 60 1014.2
20260507205850 16 0 0.0 0.0 18.01 17.75 0.00 60 1014.1
20260507205350 16 0 0.0 0.0 18.90 15.32 0.00 59 1014.3
20260507204850 16 0 0.0 0.0 18.54 13.11 0.00 59 1014.2
20260507204350 16 0 0.0 0.0 19.61 12.62 0.00 59 1014.1
20260507203850 16 0 0.0 0.0 18.75 11.02 0.00 59 1014.1
20260507203350 16 0 0.0 0.0 20.55 9.88 0.00 59 1013.9
20260507202850 16 0 0.0 0.0 19.46 8.28 0.00 58 1014.0
20260507202350 17 0 0.0 0.0 18.69 6.53 0.00 58 1013.7
20260507201850 17 0 0.0 0.0 18.16 4.85 0.00 58 1013.6
20260507201350 17 0 0.0 0.0 19.25 18.06 0.00 58 1013.4
20260507200850 17 0 0.0 0.0 16.76 18.06 0.00 57 1013.4
20260507200350 17 0 0.0 0.0 16.92 18.06 0.00 57 1013.3
20260507195850 17 0 0.0 0.0 14.12 16.81 0.00 57 1013.2
20260507195350 17 0 0.0 0.0 19.30 16.21 0.00 57 1013.0
20260507194850 17 0 0.0 0.0 16.97 13.87 0.00 56 1012.9
20260507194350 18 0 0.0 0.0 17.35 12.67 0.00 56 1012.7
20260507193850 18 0 0.0 0.0 16.97 10.19 0.00 56 1012.7
20260507193350 18 0 0.0 0.0 17.65 9.73 0.00 56 1012.6
20260507192850 18 0 0.0 0.0 16.15 8.23 0.00 55 1012.4
20260507192350 18 0 0.0 0.0 16.26 7.09 0.00 55 1012.4
20260507191850 18 0 0.0 0.0 14.81 4.85 0.00 55 1012.1
20260507191350 18 0 0.0 0.0 17.35 18.06 0.00 54 1012.1
20260507190850 19 0 0.0 0.0 17.07 18.06 0.00 54 1012.0
20260507190350 19 0 0.0 0.0 16.87 18.06 0.00 54 1011.9
20260507185850 20 0 0.0 0.0 12.73 15.01 0.00 53 1011.9
20260507185350 20 0 0.0 0.0 13.61 14.35 0.00 53 1011.8
20260507184850 20 0 0.0 0.0 14.33 12.78 0.00 52 1011.8
20260507184350 20 0 0.0 0.0 13.72 12.17 0.00 52 1011.6
20260507183850 20 0 0.0 0.0 14.02 10.67 0.00 52 1011.5
20260507183350 21 0 0.0 0.0 12.88 9.53 0.00 52 1011.4
20260507182850 21 0 0.0 0.0 12.57 8.43 0.00 52 1011.2
20260507182350 21 0 0.0 0.0 12.78 7.49 0.00 52 1011.0
20260507181850 21 0 0.0 0.0 12.01 4.85 0.00 51 1011.1
20260507181350 21 0 0.0 0.0 11.68 17.45 0.00 51 1011.0
20260507180850 22 0 0.0 0.0 10.77 16.46 0.00 50 1010.9
20260507180350 22 0 0.0 0.0 10.62 15.47 0.00 50 1010.8
20260507175850 22 0 0.0 0.0 11.53 13.92 0.00 51 1010.6
20260507175350 22 0 0.0 0.0 10.24 12.62 0.00 52 1010.6
20260507174850 22 0 0.0 0.0 9.53 11.66 0.00 54 1010.6
20260507174350 22 0 0.0 0.0 8.59 10.67 0.00 54 1010.4
20260507173850 22 0 0.0 0.0 9.58 9.83 0.00 53 1010.2
20260507173350 22 0 0.0 0.0 9.47 9.73 0.00 53 1010.1
20260507172850 22 0 0.0 0.0 7.80 7.92 0.00 52 1010.1
20260507172350 23 0 0.0 0.0 7.54 7.54 0.00 52 1010.1
20260507171850 23 0 0.0 0.0 6.40 6.05 0.00 51 1010.0
20260507171350 23 0 0.0 0.0 6.93 18.95 0.00 50 1010.1
20260507170850 23 0 0.0 0.0 6.20 18.24 0.00 50 1010.0
20260507170350 23 0 0.0 0.0 6.40 17.91 0.00 49 1009.9
20260507165850 23 0 0.0 0.0 4.09 15.60 0.00 49 1009.9
20260507165350 23 0 0.0 0.0 6.35 15.42 0.00 49 1010.0
20260507164850 23 0 0.0 0.0 6.20 15.27 0.00 48 1010.1
20260507164350 23 0 0.0 0.0 5.64 14.25 0.00 48 1009.9
20260507163850 23 0 0.0 0.0 5.64 13.46 0.00 47 1010.0
20260507163350 23 0 0.0 0.0 6.10 13.31 0.00 47 1009.9
20260507162850 24 0 0.0 0.0 5.99 13.21 0.00 46 1009.9
20260507162350 24 0 0.0 0.0 5.79 12.95 0.00 46 1009.9
20260507161850 23 0 0.0 0.0 5.79 12.17 0.00 45 1010.0
20260507161350 23 0 0.0 0.0 6.10 25.22 0.00 44 1009.9
20260507160850 23 0 0.0 0.0 6.10 24.87 0.00 43 1009.9
20260507160350 23 0 0.0 0.0 5.99 24.69 0.00 43 1009.9
20260507155850 23 0 0.0 0.0 4.14 22.28 0.00 43 1009.9
20260507155350 24 0 0.0 0.0 4.90 22.28 0.00 43 1010.0
20260507154850 24 0 0.0 0.0 4.55 21.84 0.00 42 1010.1
20260507154350 24 0 0.0 0.0 4.90 21.79 0.00 42 1010.1
20260507153850 25 0 0.0 0.0 4.45 21.03 0.00 43 1010.2
20260507153616 25 0 0.0 0.0 4.04 20.40 0.00 43 1010.1
20260507153350 25 0 0.0 0.0 4.04 20.40 0.00 43 1010.1
20260507153218 25 0 0.0 0.0 4.29 20.35 0.00 43 1010.3
20260507152850 25 0 0.0 0.0 4.29 20.35 0.00 43 1010.3
20260507152800 25 0 0.0 0.0 4.04 19.58 0.00 44 1010.1
20260507152350 25 0 0.0 0.0 4.60 20.29 0.00 44 1010.1
20260507151850 25 0 0.0 0.0 4.04 19.58 0.00 44 1010.1
20260507151351 25 0 0.0 0.0 4.04 6.91 0.00 45 1010.2
20260507150850 25 0 0.0 0.0 4.29 6.50 0.00 43 1010.2
20260507150350 25 0 0.0 0.0 4.29 6.50 0.00 44 1010.3
20260507145850 25 0 0.0 0.0 3.91 5.94 0.00 44 1010.3
20260507145350 25 0 0.0 0.0 3.66 5.11 0.00 43 1010.3
20260507144850 25 0 0.0 0.0 3.40 4.70 0.00 44 1010.4
20260507144350 25 0 0.0 0.0 3.51 4.65 0.00 45 1010.5
20260507143850 25 0 0.0 0.0 3.81 4.37 0.00 44 1010.5
20260507143350 25 0 0.0 0.0 3.56 3.86 0.00 43 1010.4
20260507142850 25 0 0.0 0.0 3.40 3.71 0.00 42 1010.5
20260507142350 25 0 0.0 0.0 3.15 3.35 0.00 43 1010.6
20260507141850 25 0 0.0 0.0 2.90 3.02 0.00 42 1010.4
20260507141350 25 0 0.0 0.0 3.15 15.77 0.00 42 1010.6
20260507140850 26 0 0.0 0.0 2.90 15.42 0.00 42 1010.4
20260507140350 26 0 0.0 0.0 3.15 15.42 0.00 43 1010.6
20260507135850 26 0 0.0 0.0 2.62 14.68 0.00 43 1010.5
20260507135351 26 0 0.0 0.0 3.71 14.63 0.00 43 1010.6
20260507134850 26 0 0.0 0.0 3.76 14.33 0.00 44 1010.7
20260507134351 26 0 0.0 0.0 3.99 14.27 0.00 48 1010.8
20260507133850 25 0 0.0 0.0 3.91 13.74 0.00 51 1010.7
20260507133351 25 0 0.0 0.0 3.76 13.49 0.00 52 1010.8
20260507132851 25 0 0.0 0.0 3.99 13.39 0.00 50 1010.8
20260507132351 25 0 0.0 0.0 4.14 13.34 0.00 51 1011.0
20260507131851 25 0 0.0 0.0 3.76 12.78 0.00 50 1010.9
20260507131351 25 0 0.0 0.0 4.14 0.43 0.00 49 1011.0
20260507130851 25 0 0.0 0.0 3.91 0.05 0.00 49 1011.1
20260507130351 25 0 0.0 0.0 4.19 25.25 0.00 50 1011.0
20260507125851 25 0 0.0 0.0 3.45 24.43 0.00 48 1011.0
20260507125351 25 0 0.0 0.0 4.04 24.00 0.00 46 1011.0
20260507124851 25 0 0.0 0.0 3.51 23.50 0.00 45 1011.0
20260507124351 25 0 0.0 0.0 3.45 23.19 0.00 45 1011.0
20260507123851 25 0 0.0 0.0 3.76 23.04 0.00 45 1011.0
20260507123351 25 0 0.0 0.0 4.50 22.91 0.00 46 1010.9
20260507122851 25 0 0.0 0.0 3.99 22.40 0.00 46 1011.0
20260507122351 25 0 0.0 0.0 4.09 22.20 0.00 47 1011.1
20260507121851 25 0 0.0 0.0 4.55 21.67 0.00 46 1011.0
20260507121351 25 0 0.0 0.0 4.65 6.78 0.00 46 1010.8
20260507120851 25 0 0.0 0.0 4.55 6.48 0.00 49 1011.0
20260507120351 24 0 0.0 0.0 4.29 6.17 0.00 50 1010.9
20260507115851 24 0 0.0 0.0 3.86 5.38 0.00 48 1010.9
20260507115351 24 0 0.0 0.0 4.90 5.18 0.00 48 1011.0
20260507114851 24 0 0.0 0.0 5.21 5.18 0.00 48 1011.1
20260507114351 24 0 0.0 0.0 5.16 4.47 0.00 47 1011.2
20260507113851 25 0 0.0 0.0 4.45 3.73 0.00 48 1011.2
20260507113351 25 0 0.0 0.0 5.54 3.63 0.00 47 1011.4
20260507112851 24 0 0.0 0.0 5.99 3.58 0.00 47 1011.2
20260507112351 25 0 0.0 0.0 5.69 3.02 0.00 47 1011.3
20260507111851 25 0 0.0 0.0 5.33 2.34 0.00 48 1011.4
20260507111351 25 0 0.0 0.0 7.09 15.19 0.00 48 1011.4
20260507110851 25 0 0.0 0.0 7.09 15.09 0.00 49 1011.5
20260507110351 25 0 0.0 0.0 7.59 14.73 0.00 50 1011.4
20260507105851 25 0 0.0 0.0 6.73 13.49 0.00 54 1011.6
20260507105351 25 0 0.0 0.0 7.98 13.26 0.00 56 1011.5
20260507104851 25 0 0.0 0.0 8.03 12.85 0.00 57 1011.4
20260507104351 24 0 0.0 0.0 8.74 12.50 0.00 59 1011.6
20260507103851 23 0 0.0 0.0 9.58 11.76 0.00 57 1011.4
20260507103351 23 0 0.0 0.0 9.09 11.30 0.00 57 1011.7
20260507102851 23 0 0.0 0.0 8.38 10.52 0.00 57 1011.7
20260507102351 23 0 0.0 0.0 9.42 10.52 0.00 54 1011.7
20260507101851 23 0 0.0 0.0 9.83 9.12 0.00 53 1011.8
20260507101351 23 0 0.0 0.0 8.69 21.18 0.00 53 1012.2
20260507100851 23 0 0.0 0.0 8.03 20.32 0.00 53 1012.1
20260507100351 23 0 0.0 0.0 7.98 19.94 0.00 53 1012.1
20260507095851 23 0 0.0 0.0 11.02 18.59 0.00 54 1012.2
20260507095351 22 0 0.0 0.0 11.86 18.49 0.00 57 1012.2
20260507094851 22 0 0.0 0.0 11.28 17.48 0.00 58 1012.3
20260507094351 22 0 0.0 0.0 10.67 16.84 0.00 60 1012.3
20260507093851 22 0 0.0 0.0 10.29 15.39 0.00 60 1012.5
20260507093351 21 0 0.0 0.0 12.01 15.34 0.00 62 1012.5
20260507092851 21 0 0.0 0.0 11.86 14.45 0.00 63 1012.6
20260507092351 21 0 0.0 0.0 11.28 13.89 0.00 65 1012.5
20260507091851 20 0 0.0 0.0 10.08 12.50 0.00 63 1012.7
20260507091351 20 0 0.0 0.0 12.62 1.70 0.00 65 1012.5
20260507090851 20 0 0.0 0.0 12.42 1.37 0.00 63 1012.7
20260507090351 20 0 0.0 0.0 10.97 23.67 0.00 64 1012.8
20260507085851 19 0 0.0 0.0 8.43 20.78 0.00 64 1012.9
20260507085351 20 0 0.0 0.0 9.73 19.84 0.00 65 1012.9
20260507084851 19 0 0.0 0.0 9.63 19.38 0.00 68 1013.0
20260507084351 19 0 0.0 0.0 9.78 19.02 0.00 68 1012.9
20260507083851 18 0 0.0 0.0 8.18 16.79 0.00 68 1012.9
20260507083351 18 0 0.0 0.0 10.44 16.18 0.00 70 1012.9
20260507082851 18 0 0.0 0.0 12.17 15.80 0.00 71 1012.9
20260507082351 18 0 0.0 0.0 12.93 15.60 0.00 71 1012.9
20260507081851 18 0 0.0 0.0 12.78 14.15 0.00 71 1013.2
20260507081351 18 0 0.0 0.0 13.51 2.26 0.00 71 1013.0
20260507080851 17 0 0.0 0.0 14.43 2.26 0.00 72 1013.1
20260507080351 17 0 0.0 0.0 15.42 2.06 0.00 72 1013.2
20260507075851 17 0 0.0 0.0 15.01 0.61 0.00 72 1013.2
20260507075351 17 0 0.0 0.0 15.52 23.27 0.00 73 1013.2
20260507074851 16 0 0.0 0.0 16.10 22.76 0.00 74 1013.4
20260507074351 16 0 0.0 0.0 16.31 22.12 0.00 75 1013.4
20260507073851 16 0 0.0 0.0 16.76 20.17 0.00 76 1013.6
20260507073351 16 0 0.0 0.0 15.16 18.14 0.00 76 1013.6
20260507072851 16 0 0.0 0.0 13.36 16.18 0.00 78 1013.8
20260507072351 16 0 0.0 0.0 12.88 14.88 0.00 79 1013.7
20260507071851 15 0 0.0 0.0 13.21 13.69 0.00 79 1013.8
20260507071351 15 0 0.0 0.0 13.03 2.11 0.00 80 1013.7
20260507070851 15 0 0.0 0.0 12.42 0.76 0.00 80 1013.8
20260507070351 14 0 0.0 0.0 12.32 23.52 0.00 82 1013.8
20260507065851 14 0 0.0 0.0 11.13 21.92 0.00 83 1013.8
20260507065351 13 0 0.0 0.0 12.52 21.36 0.00 83 1013.9
20260507064851 13 0 0.0 0.0 11.86 19.94 0.00 83 1014.0
20260507064351 12 0 0.0 0.0 12.32 19.18 0.00 83 1014.1
20260507063851 12 0 0.0 0.0 12.37 17.53 0.00 83 1014.2
20260507063351 12 0 0.0 0.0 12.37 17.09 0.00 83 1014.1
20260507062851 12 0 0.0 0.0 11.96 16.13 0.00 83 1014.1
20260507062351 11 0 0.0 0.0 11.18 14.78 0.00 83 1014.1
20260507061851 11 0 0.0 0.0 10.67 13.11 0.00 83 1014.2
20260507061351 11 0 0.0 0.0 11.63 2.01 0.00 83 1014.2
20260507060851 11 0 0.0 0.0 11.33 0.91 0.00 83 1014.2
20260507060351 11 0 0.0 0.0 11.73 0.20 0.00 83 1014.1
20260507055851 10 0 0.0 0.0 10.87 22.28 0.00 83 1014.1
20260507055351 10 0 0.0 0.0 12.12 21.29 0.00 83 1014.0
20260507054851 10 0 0.0 0.0 12.32 20.07 0.00 83 1014.2
20260507054351 10 0 0.0 0.0 12.17 18.54 0.00 83 1014.0
20260507053851 10 0 0.0 0.0 14.17 18.34 0.00 83 1014.1
20260507053351 10 0 0.0 0.0 13.26 17.42 0.00 83 1014.0
20260507052851 10 0 0.0 0.0 13.08 16.79 0.00 83 1013.9
20260507052351 10 0 0.0 0.0 13.08 15.65 0.00 83 1014.1
20260507051851 10 0 0.0 0.0 12.88 14.20 0.00 83 1014.0
20260507051351 10 0 0.0 0.0 13.92 3.56 0.00 83 1013.8
20260507050851 10 0 0.0 0.0 13.41 3.15 0.00 83 1013.9
20260507050351 10 0 0.0 0.0 12.98 2.31 0.00 83 1013.8
20260507045851 10 0 0.0 0.0 11.91 0.08 0.00 83 1013.7
20260507045351 10 0 0.0 0.0 12.93 23.06 0.00 83 1013.7
20260507044851 10 0 0.0 0.0 12.06 21.46 0.00 83 1013.5
20260507044351 10 0 0.0 0.0 11.53 20.37 0.00 83 1013.5
20260507043851 10 0 0.0 0.0 12.17 18.87 0.00 83 1013.4
20260507043351 10 0 0.0 0.0 12.42 18.39 0.00 83 1013.5
20260507042851 10 0 0.0 0.0 12.78 17.42 0.00 83 1013.4
20260507042351 10 0 0.0 0.0 11.38 16.00 0.00 83 1013.3
20260507041851 10 0 0.0 0.0 12.27 14.45 0.00 83 1013.4
20260507041351 10 0 0.0 0.0 11.48 3.00 0.00 83 1013.2
20260507040851 10 0 0.0 0.0 12.17 2.51 0.00 83 1013.5
20260507040351 10 0 0.0 0.0 11.43 1.37 0.00 83 1013.3
20260507035851 10 0 0.0 0.0 10.82 0.20 0.00 83 1013.4
20260507035351 10 0 0.0 0.0 12.17 22.58 0.00 83 1013.3
20260507034851 10 0 0.0 0.0 12.01 22.02 0.00 82 1013.4
20260507034351 10 0 0.0 0.0 12.06 21.23 0.00 83 1013.2
20260507033851 10 0 0.0 0.0 11.96 19.89 0.00 83 1013.2
20260507033351 10 0 0.0 0.0 12.32 19.13 0.00 83 1013.1
20260507032851 10 0 0.0 0.0 12.01 17.83 0.00 83 1013.1
20260507032351 10 0 0.0 0.0 12.06 16.64 0.00 83 1013.1
20260507031851 10 0 0.0 0.0 13.61 15.39 0.00 83 1013.0
20260507031351 10 0 0.0 0.0 12.67 4.19 0.00 83 1013.0
20260507030851 10 0 0.0 0.0 13.13 3.71 0.00 83 1013.0
20260507030351 10 0 0.0 0.0 13.03 3.15 0.00 83 1013.0
20260507025851 11 0 0.0 0.0 12.12 0.97 0.00 83 1013.0
20260507025351 11 0 0.0 0.0 12.98 23.77 0.00 83 1013.0
20260507024851 11 0 0.0 0.0 13.61 22.96 0.00 82 1013.0
20260507024352 11 0 0.0 0.0 13.72 22.12 0.00 82 1013.2
20260507023852 11 0 0.0 0.0 13.77 20.68 0.00 82 1013.0
20260507023352 11 0 0.0 0.0 14.22 19.68 0.00 82 1013.0
20260507022852 11 0 0.0 0.0 13.82 18.39 0.00 82 1013.0
20260507022352 11 0 0.0 0.0 13.41 17.25 0.00 83 1012.9
20260507021852 11 0 0.0 0.0 12.42 15.54 0.00 83 1013.0
20260507021352 11 0 0.0 0.0 14.12 4.70 0.00 82 1012.9
20260507020852 11 0 0.0 0.0 13.36 4.70 0.00 83 1013.0
20260507020352 11 0 0.0 0.0 12.73 3.61 0.00 83 1012.9
20260507015852 11 0 0.0 0.0 14.02 1.75 0.00 82 1013.0
20260507015352 11 0 0.0 0.0 13.87 0.76 0.00 83 1013.0
20260507014852 11 0 0.0 0.0 13.31 23.42 0.00 83 1012.9
20260507014352 11 0 0.0 0.0 12.78 21.92 0.00 82 1013.0
20260507013852 11 0 0.0 0.0 14.55 20.78 0.00 83 1012.8
20260507013352 11 0 0.0 0.0 14.61 19.53 0.00 83 1012.6
20260507012852 11 0 0.0 0.0 14.33 18.59 0.00 82 1012.9
20260507012352 11 0 0.0 0.0 14.12 17.88 0.00 82 1012.6
20260507011852 11 0 0.0 0.0 13.51 16.28 0.00 82 1012.6
20260507011352 11 0 0.0 0.0 14.76 4.70 0.00 82 1012.5
20260507010852 11 0 0.0 0.0 15.27 4.70 0.00 82 1012.4
20260507010352 11 0 0.0 0.0 15.72 4.70 0.00 82 1012.3
20260507005852 11 0 0.0 0.0 16.15 2.46 0.00 82 1012.4
20260507005352 11 0 0.0 0.0 15.37 1.07 0.00 82 1012.3
20260507004852 12 0 0.0 0.0 15.37 0.08 0.00 82 1012.4
20260507004352 12 0 0.0 0.0 15.27 22.71 0.00 82 1012.2
20260507003852 12 0 0.0 0.0 14.50 20.98 0.00 82 1012.3
20260507003352 12 0 0.0 0.0 14.33 19.02 0.00 82 1012.4
20260507002852 12 0 0.0 0.0 15.21 18.49 0.00 82 1012.2
20260507002352 12 0 0.0 0.0 15.72 17.53 0.00 82 1012.3
20260507001852 12 0 0.0 0.0 15.27 15.95 0.00 82 1012.2
20260507001352 12 0 0.0 0.0 15.01 4.70 0.00 82 1012.5
20260507000852 12 0 0.0 0.0 15.21 4.70 0.00 82 1012.5
20260507000352 12 0 0.0 0.0 16.05 4.70 0.00 82 1012.3
20260506235852 12 0 0.0 0.0 14.66 2.67 0.00 82 1012.3
20260506235352 12 0 0.0 0.0 15.52 1.85 0.00 82 1012.4
20260506234852 12 0 0.0 0.0 15.01 23.57 0.00 82 1012.4
20260506234352 12 0 0.0 0.0 15.90 22.66 0.00 82 1012.3
20260506233852 12 0 0.0 0.0 15.06 20.83 0.00 82 1012.2
20260506233352 12 0 0.0 0.0 16.81 20.27 0.00 82 1012.3
20260506232852 12 0 0.0 0.0 14.66 18.08 0.00 82 1012.3
20260506232352 12 0 0.0 0.0 14.55 16.84 0.00 82 1012.2
20260506231852 12 0 0.0 0.0 15.72 16.13 0.00 82 1012.1
20260506231352 12 0 0.0 0.0 15.32 4.70 0.00 82 1012.2
20260506230852 12 0 0.0 0.0 13.87 4.70 0.00 82 1012.2
20260506230352 12 0 0.0 0.0 13.97 3.86 0.00 82 1012.5
20260506225852 12 0 0.0 0.0 14.55 1.96 0.00 82 1012.2
20260506225352 12 0 0.0 0.0 15.27 1.22 0.00 82 1012.2
20260506224852 12 0 0.0 0.0 13.87 23.52 0.00 82 1012.2
20260506224352 12 0 0.0 0.0 12.62 21.41 0.00 82 1012.0
20260506223852 13 0 0.0 0.0 13.82 20.12 0.00 82 1012.0
20260506223352 13 0 0.0 0.0 12.93 19.08 0.00 82 1012.1
20260506222852 13 0 0.0 0.0 12.42 17.93 0.00 82 1012.1
20260506222352 13 0 0.0 0.0 11.86 16.84 0.00 82 1012.1
20260506221852 13 0 0.0 0.0 11.48 15.34 0.00 82 1011.9
20260506221352 13 0 0.0 0.0 13.87 4.70 0.00 82 1011.8
20260506220852 13 0 0.0 0.0 13.26 4.19 0.00 82 1011.8
20260506220352 13 0 0.0 0.0 13.82 3.61 0.00 82 1011.8
20260506215852 13 0 0.0 0.0 13.08 1.70 0.00 82 1011.9
20260506215352 13 0 0.0 0.0 14.71 0.25 0.00 82 1011.8
20260506214852 13 0 0.0 0.0 15.62 23.47 0.00 82 1011.8